N3FWE Weather Reports


Display with metric or nautical units.
time (UTC)temp
F
wind
direction
speed
MPH
gust
MPH
rain 1hr
in
rain 24hr
in
rain mn
in
humidity
%
barometer
mb
20260504081012 37 283 0.0 0.0 0.00 0.00 0.00 81 1015.0
20260504050014 42 283 0.0 0.0 0.00 0.00 0.00 74 1015.2
20260504045013 42 283 0.0 0.0 0.00 0.00 0.00 74 1015.2
20260504044015 42 283 0.0 0.0 0.00 0.00 0.00 74 1015.3
20260504043015 42 283 0.0 0.0 0.00 0.00 0.00 73 1015.3
20260504042015 43 283 0.0 0.0 0.00 0.00 0.00 72 1015.4
20260504041015 43 283 0.0 0.0 0.00 0.00 0.00 70 1015.3
20260504040018 43 283 0.0 2.0 0.00 0.00 0.00 70 1015.5
20260504035015 44 283 0.0 1.0 0.00 0.00 0.00 72 1015.5
20260504034016 44 283 0.0 2.0 0.00 0.00 0.00 70 1015.2
20260504033015 44 283 0.0 1.0 0.00 0.00 0.00 70 1015.0
20260504032015 44 283 1.0 3.0 0.00 0.00 0.00 68 1015.0
20260504031015 45 283 0.0 0.0 0.00 0.00 0.00 69 1015.0
20260504030015 45 283 0.0 0.0 0.00 0.00 0.00 68 1015.1
20260504025015 45 283 0.0 0.0 0.00 0.00 0.00 68 1015.0
20260504024015 46 283 0.0 0.0 0.00 0.00 0.00 68 1015.0
20260504023015 46 283 0.0 0.0 0.00 0.00 0.00 67 1015.1
20260504022014 47 283 0.0 0.0 0.00 0.00 0.00 65 1014.9
20260504021014 47 283 0.0 0.0 0.00 0.00 0.00 65 1014.9
20260504020015 48 283 0.0 0.0 0.00 0.00 0.00 63 1015.0
20260504015014 49 283 0.0 0.0 0.00 0.00 0.00 63 1014.9
20260504014014 50 283 0.0 0.0 0.00 0.00 0.00 61 1014.8
20260504013014 50 283 0.0 0.0 0.00 0.00 0.00 58 1014.7
20260504012014 51 283 0.0 0.0 0.00 0.00 0.00 57 1014.7
20260504011015 52 283 0.0 0.0 0.00 0.00 0.00 54 1014.6
20260504010014 53 283 0.0 0.0 0.00 0.00 0.00 52 1014.4
20260504005016 54 283 0.0 0.0 0.00 0.00 0.00 50 1014.5
20260504004014 55 283 0.0 0.0 0.00 0.00 0.00 46 1014.5
20260504003014 56 283 0.0 0.0 0.00 0.00 0.00 44 1014.3
20260504002014 57 283 1.0 2.0 0.00 0.00 0.00 42 1014.2
20260504001014 58 283 0.0 2.0 0.00 0.00 0.00 41 1014.2
20260504000014 58 283 2.0 4.0 0.00 0.00 0.00 39 1014.1
20260503235014 59 288 2.0 8.0 0.00 0.00 0.00 38 1014.0
20260503234014 59 267 4.0 8.0 0.00 0.00 0.00 37 1013.9
20260503233014 60 288 4.0 12.0 0.00 0.00 0.00 36 1013.8
20260503232014 60 288 4.0 8.0 0.00 0.00 0.00 36 1013.8
20260503231014 60 261 5.0 15.0 0.00 0.00 0.00 35 1013.7
20260503230014 61 269 5.0 11.0 0.00 0.00 0.00 36 1013.7
20260503225014 61 290 4.0 10.0 0.00 0.00 0.00 35 1013.8
20260503224014 61 263 6.0 13.0 0.00 0.00 0.00 34 1013.8
20260503223014 61 243 6.0 14.0 0.00 0.00 0.00 34 1013.8
20260503222014 61 253 6.0 14.0 0.00 0.00 0.00 34 1013.8
20260503221014 62 252 6.0 14.0 0.00 0.00 0.00 34 1013.8
20260503220015 61 247 7.0 14.0 0.00 0.00 0.00 34 1013.7
20260503215014 61 247 7.0 18.0 0.00 0.00 0.00 35 1013.8
20260503214014 61 333 5.0 12.0 0.00 0.00 0.00 34 1013.7
20260503213013 61 309 4.0 14.0 0.00 0.00 0.00 35 1013.8
20260503212013 61 294 8.0 19.0 0.00 0.00 0.00 34 1013.7
20260503211014 62 288 6.0 15.0 0.00 0.00 0.00 35 1013.6
20260503210014 62 5 6.0 15.0 0.00 0.00 0.00 34 1013.7
20260503205014 62 278 6.0 13.0 0.00 0.00 0.00 35 1013.7
20260503204014 62 295 7.0 15.0 0.00 0.00 0.00 35 1013.7
20260503203015 62 251 9.0 19.0 0.00 0.00 0.00 34 1013.7
20260503202014 62 272 5.0 16.0 0.00 0.00 0.00 37 1013.8
20260503201014 61 258 4.0 9.0 0.00 0.00 0.00 35 1013.9
20260503200014 60 264 6.0 19.0 0.00 0.00 0.00 34 1014.0
20260503195014 60 30 4.0 11.0 0.00 0.00 0.00 35 1014.1
20260503194014 62 318 7.0 21.0 0.00 0.00 0.00 33 1014.2
20260503193014 61 229 6.0 14.0 0.00 0.00 0.00 34 1014.3
20260503192013 61 290 7.0 19.0 0.00 0.00 0.00 34 1014.3
20260503191014 62 262 5.0 12.0 0.00 0.00 0.00 36 1014.4
20260503190012 61 292 6.0 14.0 0.00 0.00 0.00 34 1014.7
20260503185013 61 293 7.0 18.0 0.00 0.00 0.00 35 1014.8
20260503184015 62 262 6.0 14.0 0.00 0.00 0.00 34 1014.9
20260503183014 61 234 5.0 16.0 0.00 0.00 0.00 34 1015.1
20260503182014 61 360 4.0 12.0 0.00 0.00 0.00 36 1015.0
20260503181013 60 207 5.0 15.0 0.00 0.00 0.00 35 1015.0
20260503180014 60 5 7.0 16.0 0.00 0.00 0.00 33 1015.0
20260503175014 60 257 7.0 18.0 0.00 0.00 0.00 37 1015.1
20260503174015 59 257 4.0 17.0 0.00 0.00 0.00 37 1015.2
20260503173014 59 48 5.0 14.0 0.00 0.00 0.00 33 1015.1
20260503172014 59 286 6.0 18.0 0.00 0.00 0.00 38 1015.4
20260503171013 59 250 7.0 18.0 0.00 0.00 0.00 40 1015.4
20260503151014 53 274 5.0 12.0 0.00 0.00 0.00 40 1016.5
20260503131012 48 313 3.0 9.0 0.00 0.00 0.00 46 1016.8